TimePST,TemperatureF,Dew PointF,Humidity,Sea Level PressureIn,VisibilityMPH,Wind Direction,Wind SpeedMPH,Gust SpeedMPH,PrecipitationIn,Events,Conditions,WindDirDegrees,DateUTC
12:53 AM,35.1,28.0,76,29.91,10.0,WSW,20.7,27.6,N/A,,Clear,240,2013-02-23 08:53:00
1:53 AM,35.1,28.0,76,29.92,10.0,West,21.9,32.2,N/A,,Clear,260,2013-02-23 09:53:00
2:53 AM,35.1,27.0,72,29.91,10.0,West,27.6,36.8,N/A,,Scattered Clouds,260,2013-02-23 10:53:00
3:53 AM,34.0,26.1,73,29.92,10.0,West,21.9,-,N/A,,Clear,260,2013-02-23 11:53:00
4:53 AM,35.1,25.0,67,29.92,10.0,West,24.2,-,N/A,,Clear,270,2013-02-23 12:53:00
5:53 AM,35.1,24.1,64,29.95,10.0,West,25.3,36.8,N/A,,Partly Cloudy,260,2013-02-23 13:53:00
6:53 AM,36.0,24.1,62,29.96,10.0,West,28.8,35.7,N/A,,Clear,260,2013-02-23 14:53:00
7:53 AM,36.0,25.0,64,30.00,10.0,West,28.8,35.7,N/A,,Overcast,270,2013-02-23 15:53:00
8:53 AM,37.0,26.1,65,30.03,10.0,West,29.9,39.1,N/A,,Overcast,270,2013-02-23 16:53:00
9:53 AM,39.0,28.0,65,30.05,10.0,West,28.8,35.7,N/A,,Partly Cloudy,260,2013-02-23 17:53:00
10:53 AM,41.0,28.9,62,30.07,10.0,West,28.8,36.8,N/A,,Clear,270,2013-02-23 18:53:00
11:53 AM,46.0,28.0,50,30.06,10.0,West,31.1,41.4,N/A,,Clear,260,2013-02-23 19:53:00
12:53 PM,46.0,28.0,50,30.07,10.0,West,31.1,39.1,N/A,,Clear,270,2013-02-23 20:53:00
1:53 PM,48.0,27.0,44,30.07,10.0,West,32.2,40.3,N/A,,Mostly Cloudy,270,2013-02-23 21:53:00
2:53 PM,45.0,26.1,48,30.09,10.0,West,29.9,36.8,N/A,,Overcast,270,2013-02-23 22:53:00
3:53 PM,44.1,26.1,49,30.12,10.0,West,25.3,39.1,N/A,,Overcast,270,2013-02-23 23:53:00
4:53 PM,42.1,26.1,53,30.14,10.0,West,32.2,38.0,N/A,,Overcast,260,2013-02-24 00:53:00
5:53 PM,39.9,27.0,60,30.17,10.0,West,27.6,35.7,N/A,,Overcast,260,2013-02-24 01:53:00
6:53 PM,37.9,26.1,62,30.20,10.0,West,29.9,36.8,N/A,,Mostly Cloudy,260,2013-02-24 02:53:00
7:53 PM,37.0,26.1,65,30.22,10.0,West,27.6,36.8,N/A,,Clear,260,2013-02-24 03:53:00
8:53 PM,36.0,25.0,64,30.26,10.0,West,24.2,34.5,N/A,,Clear,270,2013-02-24 04:53:00
9:53 PM,35.1,26.1,70,30.28,10.0,West,17.3,-,N/A,,Partly Cloudy,260,2013-02-24 05:53:00
10:53 PM,35.1,25.0,67,30.31,10.0,SSW,8.1,-,N/A,,Overcast,210,2013-02-24 06:53:00
11:53 PM,35.1,25.0,67,30.32,10.0,Variable,4.6,-,N/A,,Overcast,0,2013-02-24 07:53:00